Time,TemperatureF,DewpointF,PressureIn,WindDirection,WindDirectionDegrees,WindSpeedMPH,WindSpeedGustMPH,Humidity,HourlyPrecipIn,Conditions,Clouds,dailyrainin,SoftwareType,DateUTC
2013-08-25 00:02:00,50.4,43.1,29.73,SW,236,0.0,0.0,76,0.00,,---,0.00,VWS V14.01,2013-08-25 07:02:00,
2013-08-25 00:07:00,50.7,43.1,29.73,SSW,208,0.0,0.0,75,0.00,,---,0.00,VWS V14.01,2013-08-25 07:07:00,
2013-08-25 00:12:00,51.2,43.2,29.73,SSW,208,0.0,0.0,74,0.00,,---,0.00,VWS V14.01,2013-08-25 07:12:00,
2013-08-25 00:17:00,51.2,42.9,29.73,SSW,208,0.0,0.0,73,0.00,,---,0.00,VWS V14.01,2013-08-25 07:17:00,
2013-08-25 00:22:00,51.1,42.4,29.73,SSW,208,0.0,0.0,72,0.00,,---,0.00,VWS V14.01,2013-08-25 07:22:00,
2013-08-25 00:27:00,51.0,42.7,29.73,SSW,208,0.0,0.0,73,0.00,,---,0.00,VWS V14.01,2013-08-25 07:27:00,
2013-08-25 00:32:00,51.0,42.7,29.73,SSW,208,0.0,0.0,73,0.00,,---,0.00,VWS V14.01,2013-08-25 07:32:00,
2013-08-25 00:37:00,51.0,42.3,29.73,SSW,208,0.0,0.0,72,0.00,,---,0.00,VWS V14.01,2013-08-25 07:37:00,
2013-08-25 00:42:00,51.2,42.9,29.73,SSW,208,0.0,0.0,73,0.00,,---,0.00,VWS V14.01,2013-08-25 07:42:00,
2013-08-25 00:47:00,51.6,43.6,29.73,SSW,208,0.0,0.0,74,0.00,,---,0.00,VWS V14.01,2013-08-25 07:47:00,
2013-08-25 00:52:00,52.2,43.8,29.73,SSW,208,0.0,0.0,73,0.00,,---,0.00,VWS V14.01,2013-08-25 07:52:00,
2013-08-25 00:57:00,52.4,43.7,29.73,SSE,158,0.0,0.0,72,0.00,,---,0.00,VWS V14.01,2013-08-25 07:57:00,
2013-08-25 01:02:00,52.5,43.8,29.73,SSE,158,0.0,0.0,72,0.00,,---,0.00,VWS V14.01,2013-08-25 08:02:00,
2013-08-25 01:07:00,52.6,43.8,29.73,South,187,0.0,0.0,72,0.00,,---,0.00,VWS V14.01,2013-08-25 08:07:00,
2013-08-25 01:12:00,52.7,44.7,29.73,South,187,0.0,0.0,74,0.00,,---,0.00,VWS V14.01,2013-08-25 08:12:00,
2013-08-25 01:17:00,52.9,44.8,29.73,South,187,0.0,0.0,74,0.00,,---,0.00,VWS V14.01,2013-08-25 08:17:00,
2013-08-25 01:22:00,53.0,44.6,29.73,South,187,0.0,0.0,73,0.00,,---,0.00,VWS V14.01,2013-08-25 08:22:00,
2013-08-25 01:27:00,53.0,44.6,29.72,South,187,0.0,0.0,73,0.00,,---,0.00,VWS V14.01,2013-08-25 08:27:00,
2013-08-25 01:32:00,53.0,44.6,29.72,South,187,0.0,0.0,73,0.00,,---,0.00,VWS V14.01,2013-08-25 08:32:00,
2013-08-25 01:37:00,52.8,44.4,29.72,South,187,0.0,0.0,73,0.00,,---,0.00,VWS V14.01,2013-08-25 08:37:00,
2013-08-25 01:42:00,52.5,44.1,29.72,South,187,0.0,0.0,73,0.00,,---,0.00,VWS V14.01,2013-08-25 08:42:00,
2013-08-25 01:47:00,52.1,43.7,29.72,South,187,0.0,0.0,73,0.00,,---,0.00,VWS V14.01,2013-08-25 08:47:00,
2013-08-25 01:52:00,51.8,43.8,29.72,South,187,0.0,0.0,74,0.00,,---,0.00,VWS V14.01,2013-08-25 08:52:00,
2013-08-25 01:57:00,51.6,44.3,29.72,South,187,0.0,0.0,76,0.00,,---,0.00,VWS V14.01,2013-08-25 08:57:00,
2013-08-25 02:03:00,51.7,44.4,29.72,South,187,0.0,0.0,76,0.00,,---,0.00,VWS V14.01,2013-08-25 09:03:00,
2013-08-25 02:08:00,51.6,44.3,29.72,South,187,0.0,0.0,76,0.00,,---,0.00,VWS V14.01,2013-08-25 09:08:00,
2013-08-25 02:13:00,51.4,44.1,29.72,South,187,0.0,0.0,76,0.00,,---,0.00,VWS V14.01,2013-08-25 09:13:00,
2013-08-25 02:18:00,51.1,43.8,29.72,South,187,0.0,0.0,76,0.00,,---,0.00,VWS V14.01,2013-08-25 09:18:00,
2013-08-25 02:23:00,50.8,44.2,29.72,SSW,199,1.0,1.0,78,0.00,,---,0.00,VWS V14.01,2013-08-25 09:23:00,
2013-08-25 02:28:00,50.8,44.5,29.72,SSW,198,0.0,0.0,79,0.00,,---,0.00,VWS V14.01,2013-08-25 09:28:00,
2013-08-25 02:33:00,50.7,44.4,29.72,SSW,199,0.0,0.0,79,0.00,,---,0.00,VWS V14.01,2013-08-25 09:33:00,
2013-08-25 02:38:00,50.6,44.3,29.72,SSW,198,0.0,0.0,79,0.00,,---,0.00,VWS V14.01,2013-08-25 09:38:00,
2013-08-25 02:43:00,50.4,44.1,29.73,SSW,198,0.0,0.0,79,0.00,,---,0.00,VWS V14.01,2013-08-25 09:43:00,
2013-08-25 02:48:00,50.3,44.0,29.72,SSW,198,0.0,0.0,79,0.00,,---,0.00,VWS V14.01,2013-08-25 09:48:00,
2013-08-25 02:53:00,50.1,44.2,29.72,SSW,198,0.0,0.0,80,0.00,,---,0.00,VWS V14.01,2013-08-25 09:53:00,
2013-08-25 02:58:00,49.9,43.3,29.73,SSW,198,0.0,0.0,78,0.00,,---,0.00,VWS V14.01,2013-08-25 09:58:00,
2013-08-25 03:03:00,49.8,42.9,29.73,SSW,198,0.0,0.0,77,0.00,,---,0.00,VWS V14.01,2013-08-25 10:03:00,
2013-08-25 03:08:00,49.7,43.1,29.73,SSW,198,0.0,0.0,78,0.00,,---,0.00,VWS V14.01,2013-08-25 10:08:00,
2013-08-25 03:13:00,49.3,42.7,29.73,SSW,198,0.0,0.0,78,0.00,,---,0.00,VWS V14.01,2013-08-25 10:13:00,
2013-08-25 03:18:00,49.0,42.8,29.73,SSW,198,0.0,0.0,79,0.00,,---,0.00,VWS V14.01,2013-08-25 10:18:00,
2013-08-25 03:23:00,48.7,42.8,29.73,SSW,198,0.0,0.0,80,0.00,,---,0.00,VWS V14.01,2013-08-25 10:23:00,
2013-08-25 03:28:00,48.3,42.4,29.73,SSW,199,0.0,0.0,80,0.00,,---,0.00,VWS V14.01,2013-08-25 10:28:00,
2013-08-25 03:33:00,48.1,42.5,29.73,SSW,199,0.0,0.0,81,0.00,,---,0.00,VWS V14.01,2013-08-25 10:33:00,
2013-08-25 03:38:00,47.7,42.2,29.73,SSW,198,0.0,0.0,81,0.00,,---,0.00,VWS V14.01,2013-08-25 10:38:00,
2013-08-25 03:43:00,47.4,41.5,29.73,SSW,198,0.0,0.0,80,0.00,,---,0.00,VWS V14.01,2013-08-25 10:43:00,
2013-08-25 03:48:00,47.2,41.7,29.74,West,262,0.0,0.0,81,0.00,,---,0.00,VWS V14.01,2013-08-25 10:48:00,
2013-08-25 03:53:00,46.9,42.0,29.74,West,261,0.0,0.0,83,0.00,,---,0.00,VWS V14.01,2013-08-25 10:53:00,
2013-08-25 03:58:00,46.7,41.5,29.74,West,262,0.0,0.0,82,0.00,,---,0.00,VWS V14.01,2013-08-25 10:58:00,
2013-08-25 04:03:00,46.3,40.8,29.74,West,261,0.0,0.0,81,0.00,,---,0.00,VWS V14.01,2013-08-25 11:03:00,
2013-08-25 04:08:00,46.0,41.1,29.74,West,261,0.0,0.0,83,0.00,,---,0.00,VWS V14.01,2013-08-25 11:08:00,
2013-08-25 04:13:00,45.9,41.0,29.74,West,262,0.0,0.0,83,0.00,,---,0.00,VWS V14.01,2013-08-25 11:13:00,
2013-08-25 04:18:00,46.0,42.0,29.74,West,262,0.0,0.0,86,0.00,,---,0.00,VWS V14.01,2013-08-25 11:18:00,
2013-08-25 04:23:00,46.0,41.1,29.74,West,261,0.0,0.0,83,0.00,,---,0.00,VWS V14.01,2013-08-25 11:23:00,
2013-08-25 04:28:00,45.9,41.3,29.74,West,261,0.0,0.0,84,0.00,,---,0.00,VWS V14.01,2013-08-25 11:28:00,
2013-08-25 04:33:00,45.8,41.9,29.74,West,263,0.0,0.0,86,0.00,,---,0.00,VWS V14.01,2013-08-25 11:33:00,
2013-08-25 04:38:00,46.0,41.4,29.74,West,262,0.0,0.0,84,0.00,,---,0.00,VWS V14.01,2013-08-25 11:38:00,
2013-08-25 04:43:00,45.9,40.7,29.74,West,261,0.0,0.0,82,0.00,,---,0.00,VWS V14.01,2013-08-25 11:43:00,
2013-08-25 04:48:00,45.9,41.0,29.75,West,261,0.0,0.0,83,0.00,,---,0.00,VWS V14.01,2013-08-25 11:48:00,
2013-08-25 04:53:00,45.7,39.9,29.75,West,262,0.0,0.0,80,0.00,,---,0.00,VWS V14.01,2013-08-25 11:53:00,
2013-08-25 04:58:00,45.5,40.0,29.75,West,261,0.0,0.0,81,0.00,,---,0.00,VWS V14.01,2013-08-25 11:58:00,
2013-08-25 05:03:00,45.3,39.8,29.75,West,261,0.0,0.0,81,0.00,,---,0.00,VWS V14.01,2013-08-25 12:03:00,
2013-08-25 05:08:00,45.2,39.1,29.75,West,261,0.0,0.0,79,0.00,,---,0.00,VWS V14.01,2013-08-25 12:08:00,
2013-08-25 05:13:00,45.1,38.7,29.75,West,262,0.0,0.0,78,0.00,,---,0.00,VWS V14.01,2013-08-25 12:13:00,
2013-08-25 05:18:00,45.2,38.4,29.75,West,262,0.0,0.0,77,0.00,,---,0.00,VWS V14.01,2013-08-25 12:18:00,
2013-08-25 05:23:00,45.2,38.4,29.75,SSW,203,0.0,0.0,77,0.00,,---,0.00,VWS V14.01,2013-08-25 12:23:00,
2013-08-25 05:28:00,45.3,38.2,29.75,SSW,205,0.0,0.0,76,0.00,,---,0.00,VWS V14.01,2013-08-25 12:28:00,
2013-08-25 05:34:00,45.2,37.4,29.75,SSW,205,0.0,0.0,74,0.00,,---,0.00,VWS V14.01,2013-08-25 12:34:00,
2013-08-25 05:39:00,44.9,36.8,29.75,SSW,205,0.0,0.0,73,0.00,,---,0.00,VWS V14.01,2013-08-25 12:39:00,
2013-08-25 05:44:00,44.9,36.4,29.76,SSW,205,0.0,0.0,72,0.00,,---,0.00,VWS V14.01,2013-08-25 12:44:00,
2013-08-25 05:49:00,45.1,37.3,29.76,SSW,205,0.0,0.0,74,0.00,,---,0.00,VWS V14.01,2013-08-25 12:49:00,
2013-08-25 05:54:00,45.6,36.8,29.76,SSW,205,0.0,0.0,71,0.00,,---,0.00,VWS V14.01,2013-08-25 12:54:00,
2013-08-25 05:59:00,45.5,36.7,29.76,SSW,205,0.0,0.0,71,0.00,,---,0.00,VWS V14.01,2013-08-25 12:59:00,
2013-08-25 06:04:00,45.3,36.5,29.76,SSW,205,0.0,0.0,71,0.00,,---,0.00,VWS V14.01,2013-08-25 13:04:00,
2013-08-25 06:09:00,44.9,36.4,29.76,SSW,205,0.0,0.0,72,0.00,,---,0.00,VWS V14.01,2013-08-25 13:09:00,
2013-08-25 06:14:00,44.5,35.7,29.77,SSW,205,0.0,0.0,71,0.00,,---,0.00,VWS V14.01,2013-08-25 13:14:00,
2013-08-25 06:19:00,44.1,35.3,29.77,SSW,205,0.0,0.0,71,0.00,,---,0.00,VWS V14.01,2013-08-25 13:19:00,
2013-08-25 06:24:00,43.9,35.5,29.77,SSW,205,0.0,0.0,72,0.00,,---,0.00,VWS V14.01,2013-08-25 13:24:00,
2013-08-25 06:29:00,43.8,35.7,29.77,SSW,205,0.0,0.0,73,0.00,,---,0.00,VWS V14.01,2013-08-25 13:29:00,
2013-08-25 06:34:00,43.8,35.7,29.77,SSW,205,0.0,0.0,73,0.00,,---,0.00,VWS V14.01,2013-08-25 13:34:00,
2013-08-25 06:39:00,43.9,35.8,29.77,SSW,205,0.0,0.0,73,0.00,,---,0.00,VWS V14.01,2013-08-25 13:39:00,
2013-08-25 06:44:00,44.1,35.7,29.77,SSW,205,0.0,0.0,72,0.00,,---,0.00,VWS V14.01,2013-08-25 13:44:00,
2013-08-25 06:49:00,44.5,35.0,29.78,SSW,205,0.0,0.0,69,0.00,,---,0.00,VWS V14.01,2013-08-25 13:49:00,
2013-08-25 06:54:00,44.7,35.9,29.78,SSW,205,0.0,0.0,71,0.00,,---,0.00,VWS V14.01,2013-08-25 13:54:00,
2013-08-25 06:59:00,45.0,35.1,29.78,SSW,205,0.0,0.0,68,0.00,,---,0.00,VWS V14.01,2013-08-25 13:59:00,
2013-08-25 07:04:00,45.2,36.7,29.78,SSW,205,0.0,0.0,72,0.00,,---,0.00,VWS V14.01,2013-08-25 14:04:00,
2013-08-25 07:09:00,45.8,36.6,29.78,SSW,205,0.0,0.0,70,0.00,,---,0.00,VWS V14.01,2013-08-25 14:09:00,
2013-08-25 07:14:00,46.6,36.6,29.78,SSW,205,0.0,0.0,68,0.00,,---,0.00,VWS V14.01,2013-08-25 14:14:00,
2013-08-25 07:19:00,47.5,37.5,29.78,SSW,205,0.0,0.0,68,0.00,,---,0.00,VWS V14.01,2013-08-25 14:19:00,
2013-08-25 07:24:00,48.9,38.1,29.79,SSW,205,0.0,0.0,66,0.00,,---,0.00,VWS V14.01,2013-08-25 14:24:00,
2013-08-25 07:29:00,50.2,38.5,29.79,SSW,205,0.0,0.0,64,0.00,,---,0.00,VWS V14.01,2013-08-25 14:29:00,
2013-08-25 07:34:00,51.2,38.6,29.79,SSW,205,0.0,0.0,62,0.00,,---,0.00,VWS V14.01,2013-08-25 14:34:00,
2013-08-25 07:39:00,52.1,39.1,29.79,SSW,205,0.0,0.0,61,0.00,,---,0.00,VWS V14.01,2013-08-25 14:39:00,
2013-08-25 07:44:00,52.6,39.5,29.79,SSW,205,0.0,0.0,61,0.00,,---,0.00,VWS V14.01,2013-08-25 14:44:00,
2013-08-25 07:49:00,53.2,39.7,29.78,SSW,204,0.0,0.0,60,0.00,,---,0.00,VWS V14.01,2013-08-25 14:49:00,
2013-08-25 07:54:00,54.0,40.4,29.78,SSW,204,0.0,0.0,60,0.00,,---,0.00,VWS V14.01,2013-08-25 14:54:00,
2013-08-25 07:59:00,54.9,40.9,29.78,SSW,204,0.0,0.0,59,0.00,,---,0.00,VWS V14.01,2013-08-25 14:59:00,
2013-08-25 08:04:00,56.4,41.8,29.78,SSW,204,0.0,0.0,58,0.00,,---,0.00,VWS V14.01,2013-08-25 15:04:00,
2013-08-25 08:09:00,58.5,41.9,29.78,SSW,204,0.0,0.0,54,0.00,,---,0.00,VWS V14.01,2013-08-25 15:09:00,
2013-08-25 08:14:00,59.9,42.7,29.78,SSW,204,0.0,0.0,53,0.00,,---,0.00,VWS V14.01,2013-08-25 15:14:00,
2013-08-25 08:19:00,61.3,43.0,29.78,SSW,204,0.0,0.0,51,0.00,,---,0.00,VWS V14.01,2013-08-25 15:19:00,
2013-08-25 08:24:00,63.1,42.0,29.78,NW,314,1.0,1.0,46,0.00,,---,0.00,VWS V14.01,2013-08-25 15:24:00,
2013-08-25 08:29:00,64.6,40.4,29.78,NW,315,0.0,0.0,41,0.00,,---,0.00,VWS V14.01,2013-08-25 15:29:00,
2013-08-25 08:34:00,65.9,40.9,29.78,NW,305,2.0,3.0,40,0.00,,---,0.00,VWS V14.01,2013-08-25 15:34:00,
2013-08-25 08:39:00,66.9,41.2,29.78,NNW,345,1.0,1.0,39,0.00,,---,0.00,VWS V14.01,2013-08-25 15:39:00,
2013-08-25 08:45:00,67.6,39.7,29.78,SSE,163,0.0,0.0,36,0.00,,---,0.00,VWS V14.01,2013-08-25 15:45:00,
2013-08-25 08:50:00,68.3,40.3,29.78,WNW,298,2.0,2.0,36,0.00,,---,0.00,VWS V14.01,2013-08-25 15:50:00,
2013-08-25 08:55:00,69.2,38.9,29.78,SSE,155,0.0,0.0,33,0.00,,---,0.00,VWS V14.01,2013-08-25 15:55:00,
2013-08-25 09:00:00,70.1,39.7,29.78,NW,307,1.0,1.0,33,0.00,,---,0.00,VWS V14.01,2013-08-25 16:00:00,
2013-08-25 09:05:00,70.6,39.3,29.78,NW,323,1.0,1.0,32,0.00,,---,0.00,VWS V14.01,2013-08-25 16:05:00,
2013-08-25 09:10:00,70.9,39.6,29.78,NW,321,0.0,0.0,32,0.00,,---,0.00,VWS V14.01,2013-08-25 16:10:00,
2013-08-25 09:15:00,71.4,38.4,29.78,SW,229,1.0,2.0,30,0.00,,---,0.00,VWS V14.01,2013-08-25 16:15:00,
2013-08-25 09:20:00,72.0,38.9,29.78,SW,225,0.0,0.0,30,0.00,,---,0.00,VWS V14.01,2013-08-25 16:20:00,
2013-08-25 09:25:00,72.5,38.5,29.78,SSW,211,3.0,3.0,29,0.00,,---,0.00,VWS V14.01,2013-08-25 16:25:00,
2013-08-25 09:30:00,72.7,37.8,29.78,WNW,288,1.0,1.0,28,0.00,,---,0.00,VWS V14.01,2013-08-25 16:30:00,
2013-08-25 09:35:00,72.6,38.5,29.78,WNW,295,0.0,1.0,29,0.00,,---,0.00,VWS V14.01,2013-08-25 16:35:00,
2013-08-25 09:40:00,73.1,39.0,29.78,NE,38,0.0,0.0,29,0.00,,---,0.00,VWS V14.01,2013-08-25 16:40:00,
2013-08-25 09:45:00,73.6,37.6,29.79,South,182,1.0,2.0,27,0.00,,---,0.00,VWS V14.01,2013-08-25 16:45:00,
2013-08-25 09:50:00,73.9,37.8,29.79,NE,47,0.0,2.0,27,0.00,,---,0.00,VWS V14.01,2013-08-25 16:50:00,
2013-08-25 09:55:00,73.9,36.9,29.78,SW,214,0.0,0.0,26,0.00,,---,0.00,VWS V14.01,2013-08-25 16:55:00,
2013-08-25 10:00:00,74.2,37.1,29.78,SW,235,2.0,4.0,26,0.00,,---,0.00,VWS V14.01,2013-08-25 17:00:00,
2013-08-25 10:05:00,74.1,37.1,29.78,SSE,160,1.0,1.0,26,0.00,,---,0.00,VWS V14.01,2013-08-25 17:05:00,
2013-08-25 10:10:00,74.0,37.9,29.78,WSW,240,1.0,3.0,27,0.00,,---,0.00,VWS V14.01,2013-08-25 17:10:00,
2013-08-25 10:15:00,74.2,38.1,29.78,East,91,0.0,1.0,27,0.00,,---,0.00,VWS V14.01,2013-08-25 17:15:00,
2013-08-25 10:20:00,74.7,38.5,29.78,SSW,204,1.0,3.0,27,0.00,,---,0.00,VWS V14.01,2013-08-25 17:20:00,
2013-08-25 10:25:00,74.9,37.7,29.78,SW,218,5.0,5.0,26,0.00,,---,0.00,VWS V14.01,2013-08-25 17:25:00,
2013-08-25 10:30:00,74.6,38.5,29.78,SE,145,0.0,1.0,27,0.00,,---,0.00,VWS V14.01,2013-08-25 17:30:00,
2013-08-25 10:35:00,75.0,37.8,29.78,SE,146,0.0,0.0,26,0.00,,---,0.00,VWS V14.01,2013-08-25 17:35:00,
2013-08-25 10:40:00,75.0,39.7,29.78,SE,134,0.0,0.0,28,0.00,,---,0.00,VWS V14.01,2013-08-25 17:40:00,
2013-08-25 10:45:00,75.7,39.4,29.78,SSW,211,0.0,1.0,27,0.00,,---,0.00,VWS V14.01,2013-08-25 17:45:00,
2013-08-25 10:50:00,76.0,39.6,29.78,SW,233,4.0,4.0,27,0.00,,---,0.00,VWS V14.01,2013-08-25 17:50:00,
2013-08-25 10:55:00,76.4,40.0,29.78,SW,235,0.0,0.0,27,0.00,,---,0.00,VWS V14.01,2013-08-25 17:55:00,
2013-08-25 11:00:00,76.5,40.1,29.77,West,270,0.0,0.0,27,0.00,,---,0.00,VWS V14.01,2013-08-25 18:00:00,
2013-08-25 11:05:00,76.4,40.0,29.77,SW,233,0.0,1.0,27,0.00,,---,0.00,VWS V14.01,2013-08-25 18:05:00,
2013-08-25 11:10:00,76.2,39.8,29.77,NW,319,1.0,2.0,27,0.00,,---,0.00,VWS V14.01,2013-08-25 18:10:00,
2013-08-25 11:15:00,76.2,38.8,29.77,East,84,0.0,1.0,26,0.00,,---,0.00,VWS V14.01,2013-08-25 18:15:00,
2013-08-25 11:20:00,76.5,39.1,29.77,SSW,211,0.0,1.0,26,0.00,,---,0.00,VWS V14.01,2013-08-25 18:20:00,
2013-08-25 11:25:00,76.8,39.3,29.77,SW,228,4.0,10.0,26,0.00,,---,0.00,VWS V14.01,2013-08-25 18:25:00,
2013-08-25 11:30:00,76.4,40.0,29.77,SSW,205,0.0,1.0,27,0.00,,---,0.00,VWS V14.01,2013-08-25 18:30:00,
2013-08-25 11:36:00,77.3,39.8,29.77,SE,129,2.0,2.0,26,0.00,,---,0.00,VWS V14.01,2013-08-25 18:36:00,
2013-08-25 11:41:00,76.9,41.3,29.77,NE,55,0.0,0.0,28,0.00,,---,0.00,VWS V14.01,2013-08-25 18:41:00,
2013-08-25 11:46:00,77.5,41.9,29.77,WSW,240,0.0,2.0,28,0.00,,---,0.00,VWS V14.01,2013-08-25 18:46:00,
2013-08-25 11:51:00,77.4,41.8,29.77,South,188,2.0,2.0,28,0.00,,---,0.00,VWS V14.01,2013-08-25 18:51:00,
2013-08-25 11:56:00,77.6,42.9,29.77,West,277,0.0,0.0,29,0.00,,---,0.00,VWS V14.01,2013-08-25 18:56:00,
2013-08-25 12:01:00,77.9,42.2,29.76,South,172,0.0,0.0,28,0.00,,---,0.00,VWS V14.01,2013-08-25 19:01:00,
2013-08-25 12:06:00,78.3,44.3,29.76,WSW,245,0.0,1.0,30,0.00,,---,0.00,VWS V14.01,2013-08-25 19:06:00,
2013-08-25 12:11:00,77.7,42.0,29.76,WNW,285,3.0,4.0,28,0.00,,---,0.00,VWS V14.01,2013-08-25 19:11:00,
2013-08-25 12:16:00,77.5,43.7,29.75,WNW,302,2.0,6.0,30,0.00,,---,0.00,VWS V14.01,2013-08-25 19:16:00,
2013-08-25 12:21:00,77.3,43.5,29.76,SSW,205,2.0,2.0,30,0.00,,---,0.00,VWS V14.01,2013-08-25 19:21:00,
2013-08-25 12:26:00,77.4,44.4,29.75,East,98,1.0,1.0,31,0.00,,---,0.00,VWS V14.01,2013-08-25 19:26:00,
2013-08-25 12:31:00,78.1,44.2,29.75,ESE,122,1.0,1.0,30,0.00,,---,0.00,VWS V14.01,2013-08-25 19:31:00,
2013-08-25 12:36:00,78.4,46.1,29.75,SSW,203,0.0,1.0,32,0.00,,---,0.00,VWS V14.01,2013-08-25 19:36:00,
2013-08-25 12:41:00,78.4,46.1,29.74,West,263,2.0,4.0,32,0.00,,---,0.00,VWS V14.01,2013-08-25 19:41:00,
2013-08-25 12:46:00,78.2,45.1,29.74,WSW,245,1.0,2.0,31,0.00,,---,0.00,VWS V14.01,2013-08-25 19:46:00,
2013-08-25 12:51:00,77.8,45.6,29.74,NW,313,2.0,3.0,32,0.00,,---,0.00,VWS V14.01,2013-08-25 19:51:00,
2013-08-25 12:56:00,77.6,45.4,29.74,NW,312,3.0,3.0,32,0.00,,---,0.00,VWS V14.01,2013-08-25 19:56:00,
2013-08-25 13:01:00,77.3,45.2,29.74,SSW,195,3.0,3.0,32,0.00,,---,0.00,VWS V14.01,2013-08-25 20:01:00,
2013-08-25 13:06:00,77.5,44.5,29.74,SSW,207,0.0,1.0,31,0.00,,---,0.00,VWS V14.01,2013-08-25 20:06:00,
2013-08-25 13:11:00,77.7,44.7,29.74,SE,136,0.0,1.0,31,0.00,,---,0.00,VWS V14.01,2013-08-25 20:11:00,
2013-08-25 13:16:00,77.1,45.0,29.74,West,270,0.0,0.0,32,0.00,,---,0.00,VWS V14.01,2013-08-25 20:16:00,
2013-08-25 13:21:00,77.0,45.7,29.74,NE,47,1.0,1.0,33,0.00,,---,0.00,VWS V14.01,2013-08-25 20:21:00,
2013-08-25 13:26:00,77.9,46.5,29.74,SE,136,0.0,1.0,33,0.00,,---,0.00,VWS V14.01,2013-08-25 20:26:00,
2013-08-25 13:31:00,77.9,45.7,29.74,ENE,64,2.0,2.0,32,0.00,,---,0.00,VWS V14.01,2013-08-25 20:31:00,
2013-08-25 13:36:00,77.6,46.2,29.74,WNW,283,3.0,4.0,33,0.00,,---,0.00,VWS V14.01,2013-08-25 20:36:00,
2013-08-25 13:41:00,76.8,46.3,29.74,SSW,211,0.0,1.0,34,0.00,,---,0.00,VWS V14.01,2013-08-25 20:41:00,
2013-08-25 13:46:00,77.4,46.9,29.74,NW,312,1.0,3.0,34,0.00,,---,0.00,VWS V14.01,2013-08-25 20:46:00,
2013-08-25 13:51:00,77.8,47.2,29.74,WNW,302,1.0,3.0,34,0.00,,---,0.00,VWS V14.01,2013-08-25 20:51:00,
2013-08-25 13:56:00,77.7,47.1,29.74,NW,313,3.0,5.0,34,0.00,,---,0.00,VWS V14.01,2013-08-25 20:56:00,
2013-08-25 14:01:00,75.6,45.3,29.74,NW,305,5.0,5.0,34,0.00,,---,0.00,VWS V14.01,2013-08-25 21:01:00,
2013-08-25 14:06:00,74.2,47.7,29.73,NW,309,3.0,4.0,39,0.00,,---,0.00,VWS V14.01,2013-08-25 21:06:00,
2013-08-25 14:11:00,74.0,47.5,29.73,SW,229,6.0,6.0,39,0.00,,---,0.00,VWS V14.01,2013-08-25 21:11:00,
2013-08-25 14:16:00,74.2,47.7,29.73,WSW,245,4.0,7.0,39,0.00,,---,0.00,VWS V14.01,2013-08-25 21:16:00,
2013-08-25 14:21:00,73.6,47.1,29.73,WNW,302,6.0,8.0,39,0.00,,---,0.00,VWS V14.01,2013-08-25 21:21:00,
2013-08-25 14:26:00,72.5,45.5,29.73,WNW,288,3.0,6.0,38,0.00,,---,0.00,VWS V14.01,2013-08-25 21:26:00,
2013-08-25 14:31:00,71.9,46.3,29.73,WSW,250,0.0,0.0,40,0.00,,---,0.00,VWS V14.01,2013-08-25 21:31:00,
2013-08-25 14:37:00,72.2,46.6,29.73,NW,320,0.0,1.0,40,0.00,,---,0.00,VWS V14.01,2013-08-25 21:37:00,
2013-08-25 14:42:00,73.2,47.5,29.73,North,11,1.0,2.0,40,0.00,,---,0.00,VWS V14.01,2013-08-25 21:42:00,
2013-08-25 14:47:00,73.0,47.3,29.73,WNW,302,6.0,6.0,40,0.00,,---,0.00,VWS V14.01,2013-08-25 21:47:00,
2013-08-25 14:52:00,72.7,47.0,29.72,WSW,247,2.0,2.0,40,0.00,,---,0.00,VWS V14.01,2013-08-25 21:52:00,
2013-08-25 14:57:00,72.9,46.5,29.72,NNW,343,10.0,11.0,39,0.00,,---,0.00,VWS V14.01,2013-08-25 21:57:00,
2013-08-25 15:02:00,73.2,46.1,29.72,West,274,2.0,3.0,38,0.00,,---,0.00,VWS V14.01,2013-08-25 22:02:00,
2013-08-25 15:07:00,73.9,47.4,29.72,WSW,256,0.0,1.0,39,0.00,,---,0.00,VWS V14.01,2013-08-25 22:07:00,
2013-08-25 15:12:00,74.5,48.6,29.72,North,358,2.0,5.0,40,0.00,,---,0.00,VWS V14.01,2013-08-25 22:12:00,
2013-08-25 15:17:00,74.2,47.7,29.73,NNW,332,2.0,2.0,39,0.00,,---,0.00,VWS V14.01,2013-08-25 22:17:00,
2013-08-25 15:22:00,74.4,47.9,29.72,West,264,1.0,7.0,39,0.00,,---,0.00,VWS V14.01,2013-08-25 22:22:00,
2013-08-25 15:27:00,74.7,48.1,29.73,West,260,1.0,2.0,39,0.00,,---,0.00,VWS V14.01,2013-08-25 22:27:00,
2013-08-25 15:32:00,74.8,49.5,29.72,WSW,246,2.0,2.0,41,0.00,,---,0.00,VWS V14.01,2013-08-25 22:32:00,
2013-08-25 15:37:00,75.3,50.0,29.72,East,82,1.0,2.0,41,0.00,,---,0.00,VWS V14.01,2013-08-25 22:37:00,
2013-08-25 15:42:00,75.1,48.5,29.71,NNE,23,1.0,1.0,39,0.00,,---,0.00,VWS V14.01,2013-08-25 22:42:00,
2013-08-25 15:47:00,74.2,48.3,29.71,NNW,333,1.0,2.0,40,0.00,,---,0.00,VWS V14.01,2013-08-25 22:47:00,
2013-08-25 15:52:00,72.7,48.3,29.71,NW,306,1.0,2.0,42,0.00,,---,0.00,VWS V14.01,2013-08-25 22:52:00,
2013-08-25 15:57:00,72.7,48.9,29.71,SSE,160,2.0,4.0,43,0.00,,---,0.00,VWS V14.01,2013-08-25 22:57:00,
2013-08-25 16:02:00,73.6,48.5,29.71,SSE,158,0.0,1.0,41,0.00,,---,0.00,VWS V14.01,2013-08-25 23:02:00,
2013-08-25 16:07:00,73.4,48.9,29.71,ENE,72,0.0,0.0,42,0.00,,---,0.00,VWS V14.01,2013-08-25 23:07:00,
2013-08-25 16:12:00,73.6,49.1,29.71,ESE,106,0.0,2.0,42,0.00,,---,0.00,VWS V14.01,2013-08-25 23:12:00,
2013-08-25 16:17:00,73.7,49.8,29.71,North,6,0.0,1.0,43,0.00,,---,0.00,VWS V14.01,2013-08-25 23:17:00,
2013-08-25 16:22:00,73.9,50.0,29.70,ENE,68,1.0,1.0,43,0.00,,---,0.00,VWS V14.01,2013-08-25 23:22:00,
2013-08-25 16:27:00,73.7,49.2,29.71,NE,39,0.0,0.0,42,0.00,,---,0.00,VWS V14.01,2013-08-25 23:27:00,
2013-08-25 16:32:00,73.7,49.2,29.71,South,173,1.0,2.0,42,0.00,,---,0.00,VWS V14.01,2013-08-25 23:32:00,
2013-08-25 16:37:00,73.7,49.8,29.71,WSW,257,0.0,1.0,43,0.00,,---,0.00,VWS V14.01,2013-08-25 23:37:00,
2013-08-25 16:42:00,74.1,49.6,29.70,NW,311,6.0,7.0,42,0.00,,---,0.00,VWS V14.01,2013-08-25 23:42:00,
2013-08-25 16:47:00,73.5,49.0,29.71,SE,139,0.0,1.0,42,0.00,,---,0.00,VWS V14.01,2013-08-25 23:47:00,
2013-08-25 16:52:00,73.1,48.7,29.71,WSW,248,3.0,4.0,42,0.00,,---,0.00,VWS V14.01,2013-08-25 23:52:00,
2013-08-25 16:57:00,72.7,48.9,29.71,North,11,1.0,2.0,43,0.00,,---,0.00,VWS V14.01,2013-08-25 23:57:00,
2013-08-25 17:02:00,73.1,48.0,29.71,NW,309,0.0,1.0,41,0.00,,---,0.00,VWS V14.01,2013-08-26 00:02:00,
2013-08-25 17:07:00,73.3,47.5,29.71,West,273,0.0,0.0,40,0.00,,---,0.00,VWS V14.01,2013-08-26 00:07:00,
2013-08-25 17:12:00,73.1,47.4,29.71,ENE,71,0.0,0.0,40,0.00,,---,0.00,VWS V14.01,2013-08-26 00:12:00,
2013-08-25 17:17:00,72.8,45.7,29.71,SSW,200,1.0,2.0,38,0.00,,---,0.00,VWS V14.01,2013-08-26 00:17:00,
2013-08-25 17:22:00,72.0,45.7,29.71,SW,229,1.0,4.0,39,0.00,,---,0.00,VWS V14.01,2013-08-26 00:22:00,
2013-08-25 17:27:00,71.4,45.2,29.71,WNW,288,2.0,4.0,39,0.00,,---,0.00,VWS V14.01,2013-08-26 00:27:00,
2013-08-25 17:33:00,70.9,44.7,29.71,NE,34,1.0,1.0,39,0.00,,---,0.00,VWS V14.01,2013-08-26 00:33:00,
2013-08-25 17:38:00,70.5,45.7,29.72,ESE,120,0.0,0.0,41,0.00,,---,0.00,VWS V14.01,2013-08-26 00:38:00,
2013-08-25 17:43:00,70.7,45.9,29.72,South,179,1.0,4.0,41,0.00,,---,0.00,VWS V14.01,2013-08-26 00:43:00,
2013-08-25 17:48:00,70.5,45.0,29.72,NW,309,0.0,0.0,40,0.00,,---,0.00,VWS V14.01,2013-08-26 00:48:00,
2013-08-25 17:53:00,70.6,45.1,29.72,SSE,160,1.0,2.0,40,0.00,,---,0.00,VWS V14.01,2013-08-26 00:53:00,
2013-08-25 17:58:00,70.1,44.7,29.72,SSW,210,0.0,0.0,40,0.00,,---,0.00,VWS V14.01,2013-08-26 00:58:00,
2013-08-25 18:03:00,70.2,46.7,29.72,ESE,114,0.0,0.0,43,0.00,,---,0.00,VWS V14.01,2013-08-26 01:03:00,
2013-08-25 18:08:00,70.4,46.2,29.72,NW,316,0.0,1.0,42,0.00,,---,0.00,VWS V14.01,2013-08-26 01:08:00,
2013-08-25 18:13:00,69.4,46.0,29.73,South,187,0.0,0.0,43,0.00,,---,0.00,VWS V14.01,2013-08-26 01:13:00,
2013-08-25 18:18:00,68.1,47.7,29.73,ESE,113,0.0,0.0,48,0.00,,---,0.00,VWS V14.01,2013-08-26 01:18:00,
2013-08-25 18:23:00,67.2,46.9,29.73,South,190,4.0,4.0,48,0.00,,---,0.00,VWS V14.01,2013-08-26 01:23:00,
2013-08-25 18:28:00,66.5,46.2,29.73,NW,308,0.0,0.0,48,0.00,,---,0.00,VWS V14.01,2013-08-26 01:28:00,
2013-08-25 18:33:00,66.1,45.9,29.73,North,8,0.0,1.0,48,0.00,,---,0.00,VWS V14.01,2013-08-26 01:33:00,
2013-08-25 18:38:00,65.6,46.5,29.73,WNW,302,0.0,0.0,50,0.00,,---,0.00,VWS V14.01,2013-08-26 01:38:00,
2013-08-25 18:43:00,65.3,47.2,29.73,ESE,110,0.0,0.0,52,0.00,,---,0.00,VWS V14.01,2013-08-26 01:43:00,
2013-08-25 18:48:00,64.9,46.9,29.73,ENE,72,0.0,0.0,52,0.00,,---,0.00,VWS V14.01,2013-08-26 01:48:00,
2013-08-25 18:53:00,64.5,46.5,29.74,North,1,0.0,0.0,52,0.00,,---,0.00,VWS V14.01,2013-08-26 01:53:00,
2013-08-25 18:58:00,64.2,46.2,29.74,SSW,198,0.0,1.0,52,0.00,,---,0.00,VWS V14.01,2013-08-26 01:58:00,
2013-08-25 19:03:00,63.9,46.0,29.74,SSW,197,0.0,0.0,52,0.00,,---,0.00,VWS V14.01,2013-08-26 02:03:00,
2013-08-25 19:08:00,63.5,45.6,29.75,NW,305,0.0,0.0,52,0.00,,---,0.00,VWS V14.01,2013-08-26 02:08:00,
2013-08-25 19:13:00,63.0,44.6,29.75,WNW,302,0.0,1.0,51,0.00,,---,0.00,VWS V14.01,2013-08-26 02:13:00,
2013-08-25 19:18:00,62.5,44.2,29.76,East,96,0.0,0.0,51,0.00,,---,0.00,VWS V14.01,2013-08-26 02:18:00,
2013-08-25 19:23:00,62.1,43.8,29.75,East,96,0.0,0.0,51,0.00,,---,0.00,VWS V14.01,2013-08-26 02:23:00,
2013-08-25 19:28:00,61.7,44.4,29.75,NNW,342,0.0,0.0,53,0.00,,---,0.00,VWS V14.01,2013-08-26 02:28:00,
2013-08-25 19:33:00,61.3,44.5,29.76,NNE,13,0.0,0.0,54,0.00,,---,0.00,VWS V14.01,2013-08-26 02:33:00,
2013-08-25 19:38:00,60.9,45.1,29.76,NNE,13,0.0,0.0,56,0.00,,---,0.00,VWS V14.01,2013-08-26 02:38:00,
2013-08-25 19:43:00,60.6,45.8,29.76,NNE,13,0.0,0.0,58,0.00,,---,0.00,VWS V14.01,2013-08-26 02:43:00,
2013-08-25 19:48:00,60.2,45.8,29.76,NNE,18,0.0,0.0,59,0.00,,---,0.00,VWS V14.01,2013-08-26 02:48:00,
2013-08-25 19:53:00,59.9,46.9,29.76,NNE,15,0.0,0.0,62,0.00,,---,0.00,VWS V14.01,2013-08-26 02:53:00,
2013-08-25 19:59:00,59.5,46.9,29.76,NNE,15,0.0,0.0,63,0.00,,---,0.00,VWS V14.01,2013-08-26 02:59:00,
2013-08-25 20:04:00,59.2,46.6,29.77,NNE,16,0.0,0.0,63,0.00,,---,0.00,VWS V14.01,2013-08-26 03:04:00,
2013-08-25 20:09:00,58.9,46.8,29.77,ENE,76,0.0,0.0,64,0.00,,---,0.00,VWS V14.01,2013-08-26 03:09:00,
2013-08-25 20:14:00,58.6,46.5,29.77,ESE,113,0.0,0.0,64,0.00,,---,0.00,VWS V14.01,2013-08-26 03:14:00,
2013-08-25 20:19:00,58.4,46.7,29.77,South,177,0.0,0.0,65,0.00,,---,0.00,VWS V14.01,2013-08-26 03:19:00,
2013-08-25 20:24:00,58.2,46.5,29.77,South,181,0.0,0.0,65,0.00,,---,0.00,VWS V14.01,2013-08-26 03:24:00,
2013-08-25 20:29:00,57.9,46.2,29.77,South,181,0.0,0.0,65,0.00,,---,0.00,VWS V14.01,2013-08-26 03:29:00,
2013-08-25 20:34:00,57.5,45.8,29.78,South,180,0.0,0.0,65,0.00,,---,0.00,VWS V14.01,2013-08-26 03:34:00,
2013-08-25 20:39:00,57.2,46.8,29.78,South,181,0.0,0.0,68,0.00,,---,0.00,VWS V14.01,2013-08-26 03:39:00,
2013-08-25 20:44:00,56.8,46.0,29.79,South,181,0.0,0.0,67,0.00,,---,0.00,VWS V14.01,2013-08-26 03:44:00,
2013-08-25 20:49:00,56.5,46.1,29.79,South,181,0.0,0.0,68,0.00,,---,0.00,VWS V14.01,2013-08-26 03:49:00,
2013-08-25 20:54:00,56.3,46.3,29.79,South,181,0.0,0.0,69,0.00,,---,0.00,VWS V14.01,2013-08-26 03:54:00,
2013-08-25 20:59:00,56.1,46.5,29.79,South,177,0.0,0.0,70,0.00,,---,0.00,VWS V14.01,2013-08-26 03:59:00,
2013-08-25 21:01:00,56.0,46.4,29.79,South,176,0.0,0.0,70,0.00,,---,0.00,VWS V14.01,2013-08-26 04:01:00,
2013-08-25 21:02:00,55.9,46.7,29.79,South,177,0.0,0.0,71,0.00,,---,0.00,VWS V14.01,2013-08-26 04:02:00,
2013-08-25 21:03:00,55.9,46.3,29.79,South,177,0.0,0.0,70,0.00,,---,0.00,VWS V14.01,2013-08-26 04:03:00,
2013-08-25 21:05:00,55.8,46.5,29.80,South,177,0.0,0.0,71,0.00,,---,0.00,VWS V14.01,2013-08-26 04:05:00,
2013-08-25 21:10:00,55.5,46.6,29.79,South,177,0.0,0.0,72,0.00,,---,0.00,VWS V14.01,2013-08-26 04:10:00,
2013-08-25 21:15:00,55.3,46.1,29.79,South,177,0.0,0.0,71,0.00,,---,0.00,VWS V14.01,2013-08-26 04:15:00,
2013-08-25 21:20:00,55.1,46.6,29.80,South,177,0.0,0.0,73,0.00,,---,0.00,VWS V14.01,2013-08-26 04:20:00,
2013-08-25 21:25:00,54.9,46.4,29.80,South,177,0.0,0.0,73,0.00,,---,0.00,VWS V14.01,2013-08-26 04:25:00,
2013-08-25 21:30:00,54.7,46.6,29.80,South,177,0.0,0.0,74,0.00,,---,0.00,VWS V14.01,2013-08-26 04:30:00,
2013-08-25 21:35:00,54.5,46.8,29.80,South,177,0.0,0.0,75,0.00,,---,0.00,VWS V14.01,2013-08-26 04:35:00,
2013-08-25 21:40:00,54.4,47.0,29.80,South,177,0.0,0.0,76,0.00,,---,0.00,VWS V14.01,2013-08-26 04:40:00,
2013-08-25 21:45:00,54.2,46.8,29.80,South,177,0.0,0.0,76,0.00,,---,0.00,VWS V14.01,2013-08-26 04:45:00,
2013-08-25 21:50:00,54.0,47.0,29.80,South,177,0.0,0.0,77,0.00,,---,0.00,VWS V14.01,2013-08-26 04:50:00,
2013-08-25 21:55:00,53.9,46.9,29.81,South,177,0.0,0.0,77,0.00,,---,0.00,VWS V14.01,2013-08-26 04:55:00,
2013-08-25 22:00:00,53.7,46.7,29.81,South,177,0.0,0.0,77,0.00,,---,0.00,VWS V14.01,2013-08-26 05:00:00,
2013-08-25 22:05:00,53.7,47.0,29.80,South,177,0.0,0.0,78,0.00,,---,0.00,VWS V14.01,2013-08-26 05:05:00,
2013-08-25 22:10:00,53.6,46.6,29.81,South,177,0.0,0.0,77,0.00,,---,0.00,VWS V14.01,2013-08-26 05:10:00,
2013-08-25 22:15:00,53.5,46.5,29.80,South,177,0.0,0.0,77,0.00,,---,0.00,VWS V14.01,2013-08-26 05:15:00,
2013-08-25 22:20:00,53.4,46.4,29.80,South,177,0.0,0.0,77,0.00,,---,0.00,VWS V14.01,2013-08-26 05:20:00,
2013-08-25 22:25:00,53.3,45.9,29.81,South,177,0.0,0.0,76,0.00,,---,0.00,VWS V14.01,2013-08-26 05:25:00,
2013-08-25 22:30:00,53.1,45.4,29.81,South,177,0.0,0.0,75,0.00,,---,0.00,VWS V14.01,2013-08-26 05:30:00,
2013-08-25 22:35:00,52.9,45.5,29.81,South,177,0.0,0.0,76,0.00,,---,0.00,VWS V14.01,2013-08-26 05:35:00,
2013-08-25 22:40:00,52.8,45.5,29.81,South,177,0.0,0.0,76,0.00,,---,0.00,VWS V14.01,2013-08-26 05:40:00,
2013-08-25 22:45:00,52.6,45.3,29.81,South,177,0.0,0.0,76,0.00,,---,0.00,VWS V14.01,2013-08-26 05:45:00,
2013-08-25 22:51:00,52.5,45.5,29.80,South,177,0.0,0.0,77,0.00,,---,0.00,VWS V14.01,2013-08-26 05:51:00,
2013-08-25 22:56:00,52.4,45.4,29.80,South,177,0.0,0.0,77,0.00,,---,0.00,VWS V14.01,2013-08-26 05:56:00,
2013-08-25 23:01:00,52.3,45.0,29.80,South,177,0.0,0.0,76,0.00,,---,0.00,VWS V14.01,2013-08-26 06:01:00,
2013-08-25 23:06:00,52.2,44.9,29.80,South,177,0.0,0.0,76,0.00,,---,0.00,VWS V14.01,2013-08-26 06:06:00,
2013-08-25 23:11:00,52.1,44.4,29.80,South,177,0.0,0.0,75,0.00,,---,0.00,VWS V14.01,2013-08-26 06:11:00,
2013-08-25 23:16:00,52.0,44.7,29.81,South,177,0.0,0.0,76,0.00,,---,0.00,VWS V14.01,2013-08-26 06:16:00,
2013-08-25 23:21:00,52.0,45.4,29.81,South,177,0.0,0.0,78,0.00,,---,0.00,VWS V14.01,2013-08-26 06:21:00,
2013-08-25 23:26:00,52.0,45.0,29.81,South,178,0.0,0.0,77,0.00,,---,0.00,VWS V14.01,2013-08-26 06:26:00,
2013-08-25 23:31:00,51.9,44.9,29.80,South,177,0.0,0.0,77,0.00,,---,0.00,VWS V14.01,2013-08-26 06:31:00,
2013-08-25 23:36:00,51.9,45.3,29.80,South,177,0.0,0.0,78,0.00,,---,0.00,VWS V14.01,2013-08-26 06:36:00,
2013-08-25 23:41:00,51.9,45.6,29.81,South,176,0.0,0.0,79,0.00,,---,0.00,VWS V14.01,2013-08-26 06:41:00,
2013-08-25 23:46:00,51.9,45.3,29.81,South,177,0.0,0.0,78,0.00,,---,0.00,VWS V14.01,2013-08-26 06:46:00,
2013-08-25 23:51:00,51.8,45.2,29.80,South,177,0.0,0.0,78,0.00,,---,0.00,VWS V14.01,2013-08-26 06:51:00,
2013-08-25 23:56:00,51.8,45.5,29.81,South,177,0.0,0.0,79,0.00,,---,0.00,VWS V14.01,2013-08-26 06:56:00,